www.pogodaiklimat.ru

Погода и климат >> Архив погоды >> Россия >> Якутия >> Юбилейная


АРХИВ ПОГОДЫ в Юбилейной

Время (UTC), дата Ветер
(напр.,м/с)
 
Видим.   Явления Облачность Т
(С)
Тd
(С)
f
(%)
Тe
(С)
Тes
(С)
Комфортность P
(гПа)
Po
(гПа)
Тmin
(С)
Tmax
(С)
R
(мм)
R24
(мм)
S
(см)
18 14.07 З 2 20 км {дождь} 10/9 600 м
[Sc]
+4.2 +0.8 79 +2 +2 1013.6 1010.6
21 14.07 З 3 20 км 8/8 600 м
[Sc]
+6.7 +2.6 75 +4 +4 1013.2 1010.2 +4.0 0.3
00 15.07 Ю 4 20 км 10/9 600 м
[Sc]
+8.6 +1.6 61 +6 +6 1011.4 1008.4
03 15.07 З 9
{14}
20 км 8/8 300 м
[Cb cap]
+12.0 +6.1 67 +9 +9 1009.6 1006.7
06 15.07 СЗ 5
{14}
20 км 9/9 300 м
[Cb cap]
+11.0 +2.7 57 +9 +9 1011.5 1008.5
09 15.07 СЗ 4
{13}
20 км 10/9 600 м
[Sc]
+9.0 +2.6 64 +6 +6 1012.1 1009.1 +12.3
12 15.07 СЗ 6
{12}
20 км 10/9 600 м
[Sc]
+8.3 +3.7 73 +4 +4 1012.5 1009.5
15 15.07 З 7
{12}
20 км 10/9 600 м
[Sc]
+6.2 +2.8 79 +1 +1 1012.8 1009.8
18 15.07 З 7
{12}
20 км 10/9 600 м
[Sc]
+5.1 +2.1 81 -0 -0 1013.3 1010.3
21 15.07 З 8
{14}
20 км 10/9 600 м
[Sc]
+7.3 +3.8 78 +2 +2 1014.5 1011.5 +4.9
00 16.07 З 4
{13}
10 км слаб. морось 10/10 300 м
[St]
+7.8 +5.3 84 +4 +4 1013.7 1010.7
03 16.07 СЗ 3
{13}
10 км слаб. морось 10/10 300 м
[St]
+6.5 +4.2 85 +3 +3 1013.0 1010.0
06 16.07 З 3 20 км {морось} 10/10 300 м
[St]
+7.4 +3.1 74 +5 +5 1012.0 1009.0
09 16.07 З 4 20 км 10/9 600 м
[Sc]
+7.8 +3.4 74 +5 +5 1010.8 1007.8 +8.0 0.5
12 16.07 СЗ 3 20 км 10/9 600 м
[Sc]
+6.3 +1.9 73 +3 +3 1010.6 1007.6
15 16.07 СЗ 3 20 км 10/9 600 м
[Sc]
+5.6 +2.1 78 +2 +2 1010.0 1007.0
18 16.07 СЗ 2 10 км слаб. дождь 10/10 600 м
[Sc]
+5.2 +3.0 86 +3 +3 1009.6 1006.6
21 16.07 С 1 20 км в посл. час дождь 10/9 600 м
[Sc]
+5.3 +2.6 83 +4 +4 1008.8 1005.8 +5.0 0.3
00 17.07 С 3 10 км слаб. морось 10/10 300 м
[St]
+5.6 +3.2 85 +2 +2 1009.0 1006.0
03 17.07 СЗ 3 20 км {морось} 10/10 300 м
[St]
+6.8 +0.8 66 +4 +4 1009.0 1006.0
06 17.07 СЗ 4 20 км {морось} 8/8 600 м
[Sc]
+7.7 +0.4 60 +5 +6 1009.4 1006.4
09 17.07 С 4 20 км 10/9 600 м
[Sc]
+5.5 -0.6 65 +2 +2 1010.2 1007.2 +8.1 0.4
12 17.07 С 5 20 км 10/9 600 м
[Sc]
+4.0 +0.3 77 -1 -1 1010.4 1007.4
15 17.07 С 5 20 км 10/9 600 м
[Sc]
+2.9 -0.4 79 -2 -2 1010.9 1007.8
18 17.07 С 5 20 км 10/9 600 м
[Sc]
+2.1 -0.7 82 -3 -3 1011.2 1008.1
21 17.07 С 5 20 км 10/9 600 м
[Sc]
+4.0 -0.9 70 -1 -1 1011.4 1008.4 +1.9
00 18.07 СЗ 6 10 км слаб. морось 10/10 300 м
[St]
+4.2 +0.5 77 -1 -1 1012.4 1009.4
03 18.07 СЗ 4 10 км слаб. морось 10/10 300 м
[St]
+4.6 +1.3 79 0 0 1014.2 1011.2
06 18.07 З 4 10 км слаб. морось 10/10 300 м
[St]
+5.6 +3.2 85 +2 +2 1015.8 1012.8
09 18.07 СЗ 4 20 км {морось} 10/10 300 м
[St]
+5.7 +2.0 77 +2 +2 1016.8 1013.8 +6.0 0.5
12 18.07 С 4 10 км слаб. морось 10/10 300 м
[St]
+4.0 +1.7 85 -0 -0 1018.8 1015.7
15 18.07 С 2 10 км слаб. морось 10/10 300 м
[St]
+3.6 +1.3 85 +1 +1 1019.0 1015.9
18 18.07 С 3 10 км слаб. морось 10/10 300 м
[St]
+4.7 +2.2 84 +1 +1 1019.3 1016.2
21 18.07 С 5 10 км слаб. морось 10/10 300 м
[St]
+4.2 +1.9 85 -1 -1 1019.8 1016.7 +3.4 0.4
00 19.07 З 5 20 км {морось} 8/8 600 м
[Sc]
+5.8 +2.1 77 +2 +2 1019.9 1016.9
03 19.07 З 3 20 км 10/9 600 м
[Sc]
+6.8 +1.6 69 +4 +4 1019.6 1016.6
06 19.07 З 5 20 км 10/9 600 м
[Sc]
+6.6 +1.9 72 +3 +3 1019.7 1016.7
09 19.07 С 4 20 км 10/9 600 м
[Sc]
+4.7 +1.1 77 +1 +1 1020.4 1017.3 +6.8 0.3
12 19.07 С 5 20 км 10/9 600 м
[Sc]
+4.0 +0.6 78 -1 -1 1020.7 1017.6
15 19.07 С 4 20 км 10/9 600 м
[Sc]
+3.0 +0.1 81 -2 -2 1021.0 1017.9
18 19.07 СЗ 3 20 км 10/9 600 м
[Sc]
+2.0 -0.5 83 -2 -2 1021.3 1018.2
21 19.07 СЗ 3 20 км 10/9 600 м
[Sc]
+3.0 +0.3 82 -1 -1 1021.7 1018.6 +1.8
00 20.07 З 2 20 км 10/9 600 м
[Sc]
+6.4 +0.2 65 +4 +5 1021.6 1018.6
03 20.07 З 4 20 км 8/3 600 м
[Sc Ci fib]
+9.6 +0.8 54 +7 +11 1018.6 1015.6
06 20.07 ЮЗ 4 20 км 6/6 600 м
[Sc]
+11.0 +1.5 52 +9 +11 1015.3 1012.3
09 20.07 ЮЗ 5 20 км ясно +15.2 +1.9 41 +14 +15 1013.4 1010.5 +15.4
12 20.07 З 5 20 км 8/8 600 м
[Sc]
+14.8 +4.0 48 +14 +14 1010.8 1007.9
15 20.07 З 8
{12}
20 км 6/3 600 м
[Sc Ac trans]
+13.7 +4.4 53 +11 +11 1009.2 1006.3
18 20.07 З 7
{11}
20 км 10/10 300 м
[St]
+5.3 +1.8 78 0 0 1009.4 1006.4
21 20.07 З 5
{11}
20 км 10/10 300 м
[St]
+3.6 +0.7 81 -1 -1 1009.9 1006.9 +3.4
00 21.07 СЗ 4 10 км слаб. морось 10/10 300 м
[St]
+6.4 +3.6 82 +3 +3 1009.8 1006.8
03 21.07 СЗ 4 10 км слаб. морось 10/10 300 м
[St]
+6.6 +3.3 79 +3 +3 1010.5 1007.5
06 21.07 З 5 20 км {морось} 10/10 300 м
[St]
+5.8 +1.3 73 +2 +2 1011.8 1008.8
09 21.07 СЗ 4 20 км 10/9 600 м
[Sc]
+5.2 -0.3 68 +1 +2 1014.1 1011.1 +6.8 0.6
12 21.07 СЗ 5 20 км 10/9 600 м
[Sc]
+3.6 +0.4 80 -1 -1 1015.4 1012.3

 

Местоположение метеостанции Юбилейная (Якутия, Россия): широта 70.77 долгота 136.20 высота над уровнем моря 24 м.

В архиве по умолчанию представлена погода в Юбилейной за последнюю неделю. Архивные данные за месяц целиком и за предыдущие месяцы, начиная с января 2011 года, Вы можете получить, выбрав интересующий диапазон дат из раскрывающегося списка и нажав кнопку "Ввод!".


*Определитесь, кто Вы:
робот инопланетянин человек

Внимание! Время в таблицах - всемирное. Для получения местного времени необходимо прибавить поправку, которая равна 10 ч.

Смотрите также архив погоды в соседних городах и на ближайших метеорологических станциях:

Погода в Усть-Куйге (Якутия, Россия) (89 км)
Погода в Депутатском (Якутия, Россия) (206 км)
Погода в Тикси (Якутия, Россия) (277 км)
Погода на Мысе Быков (Якутия, Россия) (287 км)
Погода на Мысе Кигилях (Якутия, Россия) (310 км)
Погода в Кюсюре (Якутия, Россия) (323 км)
Погода в Батагае (Якутия, Россия) (353 км)
Погода в Верхоянске (Якутия, Россия) (373 км)
Погода на Столб Острове (Якутия, Россия) (392 км)
Погода в Батагай-Алыте (Якутия, Россия) (403 км)

Пояснения к столбцам:

Ветер - указаны скорость ветра в м/с - средняя за 10 мин, порывы в срок и между сроками (в фигурных скобках) и направление, откуда дует ветер: С - северный, СВ - северо-восточный, В - восточный, ЮВ - юго-восточный, Ю - южный, ЮЗ - юго-западный, З - западный, СЗ - северо-западный.
Видимость - горизонтальная дальность видимости в метрах или километрах. При видимости от 1 до 10 км при отсутствии осадков обычно наблюдается дымка, при ухудшении видимости до 1 км и менее - туман. В сухую погоду видимость может ухудшаться дымом, пылью или мглою.
Явления - указаны атмосферные явления, наблюдавшиеся в срок или в последний час перед сроком; фигурными скобками обозначены явления, наблюдавшиеся между сроками (за 1-3 часа до срока); квадратными скобками обозначены град или гололедные отложения с указанием их диаметра в мм.
Облачность - указаны через наклонную черту общая и нижняя облачность в баллах и высота нижней границы облаков в метрах; квадратными скобками обозначены формы облаков: Ci - перистые, Cs - перисто-слоистые, Cc - перисто-кучевые, Ac - высококучевые, As - высокослоистые, Sc - слоисто-кучевые, Ns - слоисто-дождевые, Cu - кучевые, Cb - кучево-дождевые. Подробнее классификацию облаков см. в Атласе облаков (PDF).
T - Температура воздуха - температура, измеренная на высоте 2 м над землей.
Td - Температура точки росы - температура, при понижении до которой содержащийся в воздухе водяной пар достигнет насыщения.
f - Относительная влажность воздуха - влажноcть воздуха, измеренная на высоте 2 м над землей.
Te - Эффективная температура - температура, которую ощущает одетый по сезону человек в тени. Характеристика душности погоды. При расчете учитывается влияние влажности воздуха и скорости ветра на теплоощущения человека.
Tes - Эффективная температура на солнце - температура, которую ощущает человек, с поправкой на солнечный нагрев. Характеристика знойности погоды. Зависит от высоты солнца над горизонтом, облачности и скорости ветра. Ночью, в пасмурную погоду, а также при ветре 12 м/с и более поправка равна нулю.
P - Атмосферное давление - приведенное к уровню моря атмосферное давление.
Po - Атмосферное давление - измеренное на уровне метеостанции атмосферное давление.
Tmin - Минимальная температура - минимум температуры воздуха на высоте 2 м над землей.
Tmax - Максимальная температура - максимум температуры воздуха на высоте 2 м над землей.
R - Количество осадков - Количество выпавших осадков за период времени, мм. При наведении курсора мыши на число - период времени, за который выпало указанное количество осадков.
R24 - Количество осадков - Количество выпавших осадков за 24 часа, мм.
S - Снежный покров - Высота снежного покрова, см. При наведении курсора мыши на число - состояние снежного покрова и степень покрытия местности в баллах.